Regional Weather Roundup
Issued by NWS State College, PA

Home | Current Version | Previous Version | Text Only | Print | Product List | Glossary On
Versions: 1 2 3 4 5 6 7 8 9 10 11 12 13 14 15 16 17 18 19 20 21 22 23 24 25 26 27 28 29 30 31 32 33 34 35 36 37 38 39 40 41 42 43 44 45 46 47 48 49 50
000
ASUS41 KCTP 191603
RWRCTP

REGIONAL WEATHER ROUNDUP
NATIONAL WEATHER SERVICE STATE COLLEGE PA
1100 AM EST SUN NOV 19 2017

Note: "fair" indicates few or no clouds below 12,000 feet with no
significant weather and/or obstructions to visibility.

* = STATION THAT DOES NOT REPORT PRECIPITATION /E.G. RAIN...SNOW...ETC/
    THUNDER OR FOG.

PAZ002>004-007>009-013>016-020>023-029>032-191700-
WESTERN PENNSYLVANIA

CITY           SKY/WX    TMP DP  RH WIND       PRES   REMARKS
ERIE           CLOUDY    39  27  62 W16G26    29.74R
MEADVILLE      LGT SNOW  33  31  92 W9G23     29.75R VSB 3/4
FRANKLIN*      CLOUDY    36  27  69 W13G20    29.74R
NEW CASTLE     CLOUDY    37  32  82 W15G24    29.80R
BEAVER COUNTY  LGT SNOW N/A N/A N/A NW12G20   29.79R
BUTLER*        LGT RAIN  36  29  75 W12G18    29.79R
PITTSBURGH INT CLOUDY    38  31  76 W13       29.80R
PITTSBURGH     FLURRIES  36  29  75 W8        29.80R
INDIANA*       PTSUNNY   36  32  87 NW8G18    29.79R FOG
LATROBE        NOT AVBL
WASHINGTON CO* CLOUDY    39  29  67 W16G22    29.85R
$$

PAZ004>006-010>012-017>019-024>028-033>037-041-042-045-046-049>053-191700-
CENTRAL PENNSYLVANIA

CITY           SKY/WX    TMP DP  RH WIND       PRES   REMARKS
BRADFORD       LGT SNOW  33  31  92 W13       29.63R FOG
DUBOIS         CLOUDY    35  30  82 W15G23    29.68R
CLEARFIELD     CLOUDY    37  32  82 W17G26    29.68R
JOHNSTOWN      MIX PCPN  33  28  81 W15G31    29.70R
ALTOONA        CLOUDY    39  30  70 W17G31    29.71R
STATE COLLEGE  NOT AVBL
WILLIAMSPORT   PTSUNNY   45  32  60 W18G29    29.59R
SELINSGROVE    PTSUNNY   48  31  51 W17G33    29.62R
FT INDIANTOWN  CLOUDY    47  33  58 W20G32    29.61R
CAPITAL CITY   MOSUNNY   50  30  46 W22G33    29.65R
HARRISBURG     PTSUNNY   50  33  52 W29G41    29.63R
YORK           PTSUNNY   49  32  52 W22G35    29.65R
$$

PAZ038>040-043-044-047-048-054-055-060>062-067>071-191700-
EASTERN PENNSYLVANIA

CITY           SKY/WX    TMP DP  RH WIND       PRES   REMARKS
SCRANTON       CLOUDY    42  31  64 NW15G22   29.54R
MOUNT POCONO   NOT AVBL
ALLENTOWN      CLOUDY    49  32  52 NW17G33   29.54R
QUAKERTOWN*    CLOUDY    48  32  53 NW16G28   29.56R
READING        PTSUNNY   49  34  56 W21G36    29.59R
LANCASTER      PTSUNNY   49  35  58 W25G33    29.62R
COATESVILLE    CLOUDY    46  34  61 NW22G29   29.61R
POTTSTOWN      LGT RAIN  48  32  53 W13G30    29.58R
BLUE BELL      PTSUNNY   50  32  50 W14G24    29.57R
DOYLESTOWN     MOSUNNY   50  32  50 NW25G38   29.52R
WILLOW GROVE   NOT AVBL
NORTH PHILA    PTSUNNY   54  33  45 W24G36    29.56R
PHILADELPHIA   PTSUNNY   53  32  44 W28G37    29.58R
$$



USA.gov is the U.S. government's official web portal to all federal, state and local government web resources and services.